period_start,C,m1,H,J0,J1,J2,J3,J4,J5,JA,JB,JC,JD,JJ,JK,JN,#
2015-05-21 00:02:14,0.03,0.03,0.00,22.70,26.92,29.48,4.77,26.55,1017.12,2037.44,3484.00,3314.73,3596.03,350.05,348.20,4.90,0000 0000 0000 0000 000000
2015-05-21 00:07:15,0.02,0.03,0.00,22.68,26.92,29.46,4.81,26.53,1017.11,2037.52,3483.99,3314.54,3596.01,350.23,348.33,4.93,0000 0000 0000 0000 000000
2015-05-21 00:12:16,0.02,0.03,0.00,22.70,26.92,29.47,4.79,26.51,1017.11,2037.45,3483.99,3314.31,3596.00,350.00,348.39,4.96,0000 0000 0000 0000 000000
2015-05-21 00:17:17,0.03,0.03,0.00,22.64,26.90,29.46,4.81,26.55,1017.11,2037.67,3483.97,3314.28,3596.00,349.80,348.19,4.99,0000 0000 0000 0000 000000
2015-05-21 00:22:19,-0.01,0.03,0.00,22.66,26.90,29.40,4.75,26.48,1017.11,2037.70,3483.94,3314.23,3596.00,350.22,348.34,5.02,0000 0000 0000 0000 000000
2015-05-21 00:27:20,0.02,0.03,0.00,22.78,26.90,29.46,4.87,26.52,1017.11,2037.71,3483.88,3314.15,3596.00,350.65,348.78,5.05,0000 0000 0000 0000 000000
2015-05-21 00:32:21,-0.02,0.03,0.00,22.93,26.90,29.40,4.76,26.54,1017.11,2037.51,3483.62,3314.04,3595.99,350.03,347.81,5.08,0000 0000 0000 0000 000000
2015-05-21 00:37:22,0.04,0.04,0.00,22.80,26.90,29.58,4.79,26.52,1017.11,2037.67,3483.25,3314.02,3595.99,350.09,348.07,5.11,0000 0000 0000 0000 000000
2015-05-21 00:42:24,0.03,0.04,0.00,22.68,26.90,29.58,4.85,26.46,1017.11,2037.83,3483.04,3314.02,3595.99,350.40,348.61,5.13,0000 0000 0000 0000 000000
2015-05-21 00:47:25,-0.01,0.04,0.00,22.72,26.89,29.56,4.80,26.51,1017.11,2037.80,3483.00,3314.01,3595.95,349.99,348.15,5.16,0000 0000 0000 0000 000000
2015-05-21 00:52:26,0.02,0.04,0.00,22.87,26.89,29.58,4.69,26.56,1017.11,2037.83,3483.00,3314.00,3595.86,349.72,347.77,5.19,0000 0000 0000 0000 000000
2015-05-21 00:57:27,0.01,0.04,0.00,23.00,26.90,29.54,4.74,26.78,1017.11,2037.83,3482.97,3314.00,3595.50,349.91,347.52,5.22,0000 0000 0000 0000 000000
2015-05-21 01:02:28,-0.00,0.04,0.00,22.82,26.90,29.63,4.81,26.58,1017.11,2037.69,3482.70,3313.98,3595.03,349.89,347.93,5.25,0000 0000 0000 0000 000000
2015-05-21 01:07:29,0.02,0.04,0.00,22.64,26.90,29.64,4.76,26.64,1017.11,2037.71,3482.18,3313.96,3595.00,349.69,347.90,5.28,0000 0000 0000 0000 000000
2015-05-21 01:12:31,0.01,0.04,0.00,22.81,26.90,29.63,4.83,26.64,1017.11,2037.65,3482.02,3313.84,3595.00,349.76,347.99,5.31,0000 0000 0000 0000 000000
2015-05-21 01:17:31,-0.00,0.04,0.00,22.98,26.90,29.57,4.73,26.57,1017.11,2037.69,3482.01,3313.68,3594.99,349.99,347.89,5.34,0000 0000 0000 0000 000000
2015-05-21 01:22:33,-0.00,0.04,0.00,22.94,26.90,29.64,4.74,26.57,1017.11,2037.56,3482.00,3313.22,3594.98,349.93,347.64,5.37,0000 0000 0000 0000 000000
2015-05-21 01:27:34,0.03,0.04,0.00,22.82,26.92,29.64,4.72,26.57,1017.11,2037.60,3481.98,3313.09,3594.92,349.61,347.48,5.40,0000 0000 0000 0000 000000
2015-05-21 01:32:35,-0.03,0.04,0.00,22.78,26.92,29.60,4.77,26.57,1017.12,2037.57,3481.95,3313.05,3594.79,349.79,347.99,5.43,0000 0000 0000 0000 000000
2015-05-21 01:37:37,0.04,0.04,0.00,22.82,26.92,29.59,4.82,26.48,1017.16,2037.58,3481.60,3313.01,3594.43,350.22,348.24,5.46,0000 0000 0000 0000 000000
2015-05-21 01:42:38,0.03,0.04,0.00,22.82,26.92,29.51,4.78,26.57,1017.19,2037.54,3481.12,3313.00,3594.08,350.01,347.95,5.49,0000 0000 0000 0000 000000
2015-05-21 01:47:39,-0.00,0.04,0.00,22.87,26.92,29.51,4.74,26.48,1017.24,2037.60,3481.02,3313.00,3594.03,350.38,348.47,5.52,0000 0000 0000 0000 000000
2015-05-21 01:52:40,0.03,0.04,0.00,22.87,26.91,29.49,4.76,26.53,1017.31,2037.67,3481.00,3313.00,3594.01,349.85,347.93,5.54,0000 0000 0000 0000 000000
2015-05-21 01:57:41,-0.00,0.04,0.00,22.86,26.90,29.49,4.73,26.68,1017.39,2037.78,3481.00,3313.00,3594.01,349.77,347.98,5.57,0000 0000 0000 0000 000000
2015-05-21 02:02:43,0.02,0.04,0.00,22.82,26.90,29.46,4.81,26.67,1017.25,2037.71,3480.96,3312.99,3594.00,350.23,348.30,5.60,0000 0000 0000 0000 000000
2015-05-21 02:07:44,0.02,0.04,0.00,22.82,26.90,29.45,4.78,26.67,1017.22,2037.81,3480.39,3312.97,3593.98,349.66,347.76,5.63,0000 0000 0000 0000 000000
2015-05-21 02:12:45,0.02,0.04,0.00,22.83,26.90,29.45,4.80,26.55,1017.28,2037.85,3480.05,3312.91,3593.95,350.09,348.15,5.66,0000 0000 0000 0000 000000
2015-05-21 02:17:46,0.01,0.04,0.00,22.94,26.89,29.44,4.78,26.54,1017.40,2037.93,3480.00,3312.69,3593.72,350.08,348.13,5.69,0000 0000 0000 0000 000000
2015-05-21 02:22:47,0.03,0.04,0.00,22.90,26.89,29.48,4.80,26.71,1017.37,2037.96,3479.99,3312.39,3593.45,350.32,348.39,5.72,0000 0000 0000 0000 000000
2015-05-21 02:27:49,0.02,0.04,0.00,22.81,26.87,29.47,4.77,26.61,1017.48,2037.96,3479.75,3312.11,3593.10,350.20,348.41,5.75,0000 0000 0000 0000 000000
2015-05-21 02:32:50,0.01,0.04,0.00,22.84,26.87,29.44,4.83,26.53,1017.55,2037.98,3479.11,3312.04,3593.02,349.82,348.06,5.78,0000 0000 0000 0000 000000
2015-05-21 02:37:51,0.00,0.04,0.00,22.85,26.87,29.44,4.75,26.48,1017.47,2037.97,3479.00,3312.00,3593.00,350.02,348.25,5.81,0000 0000 0000 0000 000000
2015-05-21 02:42:53,0.00,0.04,0.00,22.84,26.87,29.44,4.75,26.53,1017.39,2037.99,3478.96,3312.00,3592.99,349.91,348.19,5.84,0000 0000 0000 0000 000000
2015-05-21 02:47:54,0.01,0.04,0.00,22.83,26.87,29.42,4.72,26.55,1017.34,2037.98,3478.65,3312.00,3592.95,349.68,347.72,5.87,0000 0000 0000 0000 000000
2015-05-21 02:52:55,0.02,0.05,0.00,22.81,26.86,29.43,4.70,26.57,1017.38,2037.99,3478.07,3311.99,3592.67,349.43,347.74,5.90,0000 0000 0000 0000 000000
2015-05-21 02:57:56,0.01,0.05,0.00,22.84,26.85,29.44,4.78,26.77,1017.46,2037.99,3478.00,3311.93,3592.16,350.40,348.27,5.93,0000 0000 0000 0000 000000
2015-05-21 03:02:57,0.01,0.05,0.00,22.78,26.85,29.43,4.77,26.48,1017.57,2037.99,3477.96,3311.77,3592.02,349.68,347.88,5.95,0000 0000 0000 0000 000000
2015-05-21 03:07:59,0.04,0.05,0.00,22.82,26.85,29.43,4.78,26.49,1017.59,2037.99,3477.50,3311.32,3592.00,350.35,348.63,5.98,0000 0000 0000 0000 000000
2015-05-21 03:13:00,0.01,0.05,0.00,22.83,26.85,29.42,4.81,26.63,1017.59,2037.99,3477.02,3311.02,3591.96,350.19,348.38,6.01,0000 0000 0000 0000 000000
2015-05-21 03:18:02,0.00,0.05,0.00,22.80,26.85,29.45,4.76,26.51,1017.59,2037.99,3476.98,3311.00,3591.85,350.00,348.06,6.04,0000 0000 0000 0000 000000
2015-05-21 03:23:03,0.02,0.05,0.00,22.80,26.85,29.45,4.78,26.56,1017.59,2037.99,3476.81,3311.00,3591.24,350.08,348.24,6.07,0000 0000 0000 0000 000000
2015-05-21 03:28:04,0.02,0.05,0.00,22.82,26.85,29.44,4.85,26.48,1017.59,2037.99,3476.22,3310.98,3591.03,350.31,348.39,6.10,0000 0000 0000 0000 000000
2015-05-21 03:33:06,0.00,0.05,0.00,22.78,26.84,29.43,4.76,26.49,1017.59,2037.99,3476.02,3310.95,3591.01,349.70,348.14,6.13,0000 0000 0000 0000 000000
2015-05-21 03:38:07,0.02,0.05,0.00,22.79,26.84,29.44,4.78,26.60,1017.59,2037.99,3476.00,3310.63,3591.00,349.96,348.57,6.16,0000 0000 0000 0000 000000
2015-05-21 03:43:08,0.01,0.05,0.00,22.78,26.84,29.43,4.79,26.57,1017.59,2037.99,3475.98,3310.30,3590.98,349.86,348.17,6.19,0000 0000 0000 0000 000000
2015-05-21 03:48:09,0.01,0.05,0.00,22.79,26.83,29.41,4.79,26.67,1017.59,2037.99,3475.77,3310.08,3590.93,350.02,348.28,6.22,0000 0000 0000 0000 000000
2015-05-21 03:53:10,0.01,0.05,0.00,22.82,26.82,29.47,4.82,26.62,1017.59,2037.99,3475.30,3310.02,3590.89,350.25,348.60,6.25,0000 0000 0000 0000 000000
2015-05-21 03:58:12,0.02,0.05,0.00,22.82,26.82,29.44,4.77,26.70,1017.59,2037.99,3475.03,3310.01,3590.38,349.72,347.92,6.28,0000 0000 0000 0000 000000
2015-05-21 04:03:13,0.00,0.05,0.00,22.84,26.82,29.45,4.79,26.55,1017.59,2037.99,3475.00,3310.00,3590.07,349.40,347.61,6.31,0000 0000 0000 0000 000000
2015-05-21 04:08:15,0.00,0.05,0.00,22.85,26.82,29.44,4.79,26.52,1017.59,2037.99,3474.97,3309.98,3590.01,349.88,348.08,6.34,0000 0000 0000 0000 000000
2015-05-21 04:13:16,0.00,0.05,0.00,22.82,26.82,29.46,4.81,26.58,1017.62,2037.99,3474.90,3309.98,3590.00,350.14,348.34,6.36,0000 0000 0000 0000 000000
2015-05-21 04:18:17,0.02,0.05,0.00,22.83,26.82,29.45,4.77,26.50,1017.60,2037.99,3474.22,3309.92,3589.99,350.01,348.09,6.39,0000 0000 0000 0000 000000
2015-05-21 04:23:18,0.00,0.05,0.00,22.88,26.82,29.45,4.81,26.54,1017.63,2037.99,3474.04,3309.93,3589.98,349.98,348.15,6.42,0000 0000 0000 0000 000000
2015-05-21 04:28:19,0.01,0.05,0.00,22.88,26.83,29.45,4.76,26.52,1017.70,2037.99,3474.01,3309.78,3589.94,350.02,347.92,6.45,0000 0000 0000 0000 000000
2015-05-21 04:33:21,0.02,0.05,0.00,22.82,26.83,29.48,4.80,26.61,1017.62,2037.99,3474.00,3309.37,3589.72,350.09,348.23,6.48,0000 0000 0000 0000 000000
2015-05-21 04:38:22,0.02,0.05,0.00,22.83,26.83,29.49,4.78,26.61,1017.60,2037.99,3473.96,3309.06,3589.09,349.99,348.12,6.51,0000 0000 0000 0000 000000
2015-05-21 04:43:24,0.01,0.06,0.00,22.82,26.84,29.47,4.84,26.63,1017.61,2037.99,3473.76,3309.02,3589.02,350.28,348.52,6.54,0000 0000 0000 0000 000000
2015-05-21 04:48:25,0.01,0.06,0.00,22.82,26.84,29.48,4.75,26.72,1017.60,2037.99,3473.28,3309.00,3589.01,349.83,348.08,6.57,0000 0000 0000 0000 000000
2015-05-21 04:53:26,0.00,0.06,0.00,22.82,26.85,29.49,4.77,26.68,1017.61,2037.99,3473.02,3309.00,3589.00,349.85,348.13,6.60,0000 0000 0000 0000 000000
2015-05-21 04:58:27,0.00,0.06,0.00,22.69,26.84,29.61,4.77,26.78,1017.59,2037.99,3473.00,3309.00,3588.99,350.08,348.36,6.63,0000 0000 0000 0000 000000
2015-05-21 05:03:29,0.00,0.06,0.00,22.62,26.84,29.56,4.77,26.68,1017.59,2037.99,3472.92,3308.96,3588.88,349.61,348.08,6.66,0000 0000 0000 0000 000000
2015-05-21 05:08:30,0.02,0.06,0.00,22.71,26.83,29.50,4.73,26.59,1017.60,2037.99,3472.50,3308.93,3588.74,349.10,347.47,6.69,0000 0000 0000 0000 000000
2015-05-21 05:13:31,0.03,0.06,0.00,22.91,26.82,29.53,4.77,26.69,1017.60,2037.99,3472.19,3308.82,3588.42,349.59,347.69,6.72,0000 0000 0000 0000 000000
2015-05-21 05:18:32,0.03,0.06,0.00,23.10,26.84,29.44,4.79,26.63,1017.59,2037.99,3472.01,3308.26,3588.05,350.11,348.18,6.75,0000 0000 0000 0000 000000
2015-05-21 05:23:33,0.00,0.06,0.00,22.98,26.85,29.56,4.77,26.55,1017.60,2037.99,3471.97,3308.02,3588.00,350.27,348.32,6.78,0000 0000 0000 0000 000000
2015-05-21 05:28:35,0.02,0.06,0.00,22.79,26.85,29.65,4.72,26.61,1017.60,2037.99,3471.30,3308.00,3587.96,349.48,347.79,6.80,0000 0000 0000 0000 000000
2015-05-21 05:33:36,0.02,0.06,0.00,22.80,26.85,29.69,4.83,26.54,1017.62,2037.99,3471.00,3307.98,3587.55,349.99,348.25,6.83,0000 0000 0000 0000 000000
2015-05-21 05:38:37,0.03,0.06,0.00,22.83,26.87,29.71,4.82,26.62,1017.61,2037.99,3470.73,3307.75,3587.03,350.01,347.93,6.86,0000 0000 0000 0000 000000
2015-05-21 05:43:38,0.04,0.06,0.00,22.98,26.87,29.65,4.83,26.61,1017.63,2037.99,3470.08,3307.08,3586.99,349.87,347.96,6.89,0000 0000 0000 0000 000000
2015-05-21 05:48:39,0.01,0.06,0.00,23.13,26.89,29.67,4.74,26.59,1017.62,2037.99,3469.99,3307.00,3586.74,350.02,347.79,6.92,0000 0000 0000 0000 000000
2015-05-21 05:53:40,0.03,0.06,0.00,22.93,26.90,29.74,4.76,26.53,1017.73,2037.98,3469.53,3306.98,3586.08,349.85,347.99,6.95,0000 0000 0000 0000 000000
2015-05-21 05:58:41,0.04,0.06,0.00,22.84,26.91,29.77,4.82,26.67,1017.93,2037.98,3469.01,3306.39,3585.99,350.04,348.54,6.98,0000 0000 0000 0000 000000
2015-05-21 06:03:43,0.01,0.06,0.00,22.85,26.92,29.82,4.76,26.48,1017.99,2037.98,3468.78,3306.05,3585.93,349.97,348.20,7.01,0000 0000 0000 0000 000000
2015-05-21 06:08:43,0.03,0.07,0.00,22.94,26.92,29.79,4.76,26.70,1017.99,2037.96,3468.13,3306.00,3585.33,349.70,347.93,7.04,0000 0000 0000 0000 000000
2015-05-21 06:13:44,0.01,0.07,0.00,23.15,26.94,29.74,4.79,26.50,1018.06,2037.98,3468.01,3305.99,3585.03,350.06,348.01,7.07,0000 0000 0000 0000 000000
2015-05-21 06:18:46,0.01,0.07,0.00,23.10,26.95,29.78,4.83,26.50,1018.08,2037.98,3467.90,3305.82,3584.99,350.23,348.25,7.10,0000 0000 0000 0000 000000
2015-05-21 06:23:47,0.06,0.07,0.00,22.92,26.97,29.83,4.79,26.56,1018.08,2037.92,3467.11,3305.18,3584.64,349.48,348.01,7.13,0000 0000 0000 0000 000000
2015-05-21 06:28:48,0.01,0.07,0.00,22.91,26.97,29.86,4.71,26.39,1018.08,2037.91,3466.94,3305.00,3584.08,349.47,347.96,7.16,0000 0000 0000 0000 000000
2015-05-21 06:33:49,0.02,0.07,0.00,22.98,26.98,29.88,4.77,26.52,1018.08,2037.79,3466.19,3304.97,3584.00,349.59,347.81,7.18,0000 0000 0000 0000 000000
2015-05-21 06:38:51,-0.00,0.07,0.00,23.10,27.00,29.83,4.79,26.49,1018.08,2037.68,3466.00,3304.60,3583.82,350.11,348.21,7.21,0000 0000 0000 0000 000000
2015-05-21 06:43:52,0.03,0.07,0.00,23.21,27.00,29.81,4.83,26.49,1018.08,2037.64,3465.93,3304.09,3583.23,350.12,348.10,7.24,0000 0000 0000 0000 000000
2015-05-21 06:48:53,0.01,0.07,0.00,23.03,27.02,29.89,4.78,26.54,1018.10,2037.60,3465.16,3304.00,3583.00,349.60,347.68,7.27,0000 0000 0000 0000 000000
2015-05-21 06:53:55,-0.05,0.07,0.00,22.93,27.02,29.93,4.77,26.39,1018.19,2037.21,3464.89,3303.98,3582.99,349.65,347.83,7.30,0000 0000 0000 0000 000000
2015-05-21 06:58:56,0.06,0.07,0.00,22.91,27.02,29.90,4.76,26.64,1018.41,2037.08,3464.10,3303.41,3582.55,349.97,348.40,7.33,0000 0000 0000 0000 000000
2015-05-21 07:03:57,0.03,0.07,0.00,23.06,27.02,29.84,4.76,26.55,1018.52,2037.19,3464.00,3303.08,3582.11,349.56,348.03,7.36,0000 0000 0000 0000 000000
2015-05-21 07:08:58,0.01,0.07,0.00,23.17,27.04,29.77,4.76,26.40,1018.56,2037.28,3463.94,3303.02,3582.01,349.77,347.78,7.39,0000 0000 0000 0000 000000
2015-05-21 07:14:00,0.00,0.07,0.00,23.03,27.05,29.84,4.79,26.46,1018.57,2037.14,3463.13,3302.96,3581.87,350.03,348.35,7.42,0000 0000 0000 0000 000000
2015-05-21 07:19:01,0.02,0.07,0.00,22.93,27.05,29.90,4.79,26.42,1018.57,2037.08,3462.96,3302.73,3581.30,349.96,348.43,7.45,0000 0000 0000 0000 000000
2015-05-21 07:24:02,0.04,0.07,0.00,22.90,27.05,29.91,4.76,26.47,1018.57,2037.03,3462.22,3302.09,3581.02,349.29,347.67,7.48,0000 0000 0000 0000 000000
2015-05-21 07:29:03,0.00,0.07,0.00,22.92,27.05,29.88,4.79,26.54,1018.57,2037.03,3462.00,3302.00,3580.98,350.02,348.43,7.51,0000 0000 0000 0000 000000
2015-05-21 07:34:05,0.02,0.07,0.00,23.08,27.05,29.84,4.80,26.53,1018.57,2037.07,3461.90,3301.99,3580.75,350.15,348.44,7.54,0000 0000 0000 0000 000000
2015-05-21 07:39:06,0.04,0.08,0.00,23.15,27.06,29.81,4.79,26.56,1018.58,2037.03,3461.17,3301.78,3580.12,350.14,348.33,7.57,0000 0000 0000 0000 000000
2015-05-21 07:44:08,0.02,0.08,0.00,22.95,27.07,29.90,4.75,26.50,1018.58,2037.03,3460.91,3301.12,3579.99,350.01,348.62,7.59,0000 0000 0000 0000 000000
2015-05-21 07:49:09,0.02,0.08,0.00,22.92,27.07,29.92,4.81,26.57,1018.59,2037.00,3460.11,3301.00,3579.81,350.01,348.58,7.62,0000 0000 0000 0000 000000
2015-05-21 07:54:10,0.02,0.08,0.00,22.92,27.07,29.93,4.80,26.49,1018.59,2037.02,3459.99,3300.99,3579.19,349.82,348.31,7.65,0000 0000 0000 0000 000000
2015-05-21 07:59:11,0.04,0.08,0.00,23.02,27.07,29.90,4.86,26.57,1018.58,2037.01,3459.53,3300.64,3579.00,350.35,348.81,7.68,0000 0000 0000 0000 000000
2015-05-21 08:04:13,0.02,0.08,0.00,23.20,27.07,29.82,4.80,26.57,1018.59,2037.00,3459.11,3300.24,3578.98,349.66,347.93,7.71,0000 0000 0000 0000 000000
2015-05-21 08:09:14,0.01,0.08,0.00,23.08,27.08,29.90,4.82,26.52,1018.63,2037.01,3459.00,3300.01,3578.80,350.14,348.42,7.74,0000 0000 0000 0000 000000
2015-05-21 08:14:15,0.03,0.08,0.00,22.89,27.09,29.94,4.85,26.53,1018.71,2037.00,3458.40,3299.99,3578.07,350.32,348.85,7.77,0000 0000 0000 0000 000000
2015-05-21 08:19:16,0.01,0.08,0.00,22.91,27.09,29.96,4.77,26.44,1018.81,2037.00,3457.99,3299.81,3578.00,349.76,348.21,7.80,0000 0000 0000 0000 000000
2015-05-21 08:24:17,0.05,0.08,0.00,22.93,27.09,29.90,4.79,26.64,1018.86,2037.00,3457.63,3299.27,3577.74,349.95,348.45,7.83,0000 0000 0000 0000 000000
2015-05-21 08:29:19,0.02,0.08,0.00,23.05,27.10,29.87,4.74,26.47,1018.96,2037.00,3457.09,3299.02,3577.16,349.74,348.29,7.86,0000 0000 0000 0000 000000
2015-05-21 08:34:20,0.00,0.08,0.00,23.22,27.10,29.88,4.81,26.44,1019.00,2037.00,3456.98,3298.99,3577.00,350.03,348.31,7.89,0000 0000 0000 0000 000000
2015-05-21 08:39:21,0.02,0.09,0.00,23.02,27.11,29.97,4.88,26.53,1019.00,2037.00,3456.40,3298.92,3576.91,350.31,348.72,7.92,0000 0000 0000 0000 000000
2015-05-21 08:44:22,0.05,0.09,0.00,22.90,27.12,29.96,4.77,26.39,1019.03,2037.00,3456.01,3298.42,3576.44,350.04,348.86,7.95,0000 0000 0000 0000 000000
2015-05-21 08:49:23,0.01,0.09,0.00,22.88,27.12,29.98,4.83,26.57,1019.06,2037.00,3455.91,3298.03,3576.02,350.71,349.39,7.98,0000 0000 0000 0000 000000
2015-05-21 08:54:24,0.02,0.09,0.00,22.98,27.12,29.95,4.79,26.67,1019.06,2037.00,3455.25,3298.00,3575.99,350.08,348.71,8.00,0000 0000 0000 0000 000000
2015-05-21 08:59:26,0.01,0.09,0.00,23.13,27.12,29.91,4.78,26.73,1019.05,2037.00,3455.00,3297.94,3575.80,350.08,348.32,8.03,0000 0000 0000 0000 000000
2015-05-21 09:04:27,0.02,0.09,0.00,23.07,27.12,29.96,4.76,26.54,1019.05,2037.00,3454.95,3297.81,3575.27,349.91,348.26,8.06,0000 0000 0000 0000 000000
2015-05-21 09:09:28,0.05,0.09,0.00,22.88,27.12,30.00,4.83,26.54,1019.06,2037.00,3454.17,3297.11,3575.01,350.55,349.29,8.09,0000 0000 0000 0000 000000
2015-05-21 09:14:30,0.00,0.09,0.00,22.86,27.13,30.02,4.82,26.45,1019.06,2037.00,3454.00,3297.01,3575.00,349.85,348.29,8.12,0000 0000 0000 0000 000000
2015-05-21 09:19:31,0.01,0.09,0.00,22.82,27.12,29.94,4.81,26.45,1019.06,2036.99,3453.87,3297.00,3574.78,350.06,348.72,8.15,0000 0000 0000 0000 000000
2015-05-21 09:24:32,0.03,0.09,0.00,22.95,27.12,29.94,4.80,26.61,1019.06,2036.99,3453.28,3296.99,3574.26,349.49,348.20,8.18,0000 0000 0000 0000 000000
2015-05-21 09:29:33,0.01,0.09,0.00,23.13,27.13,29.89,4.80,26.51,1019.06,2036.99,3453.01,3296.82,3574.01,349.66,348.03,8.21,0000 0000 0000 0000 000000
2015-05-21 09:34:34,0.03,0.09,0.00,23.05,27.14,29.95,4.81,26.52,1019.06,2036.99,3452.80,3296.11,3573.98,349.61,347.94,8.24,0000 0000 0000 0000 000000
2015-05-21 09:39:36,0.03,0.09,0.00,22.87,27.15,30.01,4.77,26.42,1019.07,2036.99,3452.07,3296.00,3573.47,349.45,348.17,8.27,0000 0000 0000 0000 000000
2015-05-21 09:44:37,0.00,0.10,0.00,22.86,27.15,30.01,4.79,26.50,1019.07,2036.99,3451.92,3295.99,3573.04,349.75,348.61,8.30,0000 0000 0000 0000 000000
2015-05-21 09:49:38,0.02,0.10,0.00,22.91,27.14,29.93,4.76,26.48,1019.10,2036.99,3451.26,3295.95,3572.99,350.25,348.77,8.33,0000 0000 0000 0000 000000
2015-05-21 09:54:39,0.02,0.10,0.00,23.06,27.14,29.91,4.85,26.55,1019.09,2036.99,3451.01,3295.44,3572.94,350.18,348.64,8.36,0000 0000 0000 0000 000000
2015-05-21 09:59:41,0.03,0.10,0.00,23.15,27.15,29.88,4.87,26.64,1019.08,2036.98,3450.83,3295.02,3572.29,350.40,348.70,8.39,0000 0000 0000 0000 000000
2015-05-21 10:04:42,0.02,0.10,0.00,22.94,27.15,29.96,4.81,26.43,1019.10,2036.99,3450.14,3295.00,3572.01,349.55,348.04,8.41,0000 0000 0000 0000 000000
2015-05-21 10:09:44,0.00,0.10,0.00,22.81,27.15,29.99,4.79,26.39,1019.09,2036.99,3449.99,3294.98,3572.00,349.70,348.63,8.44,0000 0000 0000 0000 000000
2015-05-21 10:14:45,0.04,0.10,0.00,22.74,27.15,29.92,4.81,26.49,1019.07,2036.99,3449.54,3294.55,3571.96,349.97,348.85,8.47,0000 0000 0000 0000 000000
2015-05-21 10:19:46,0.02,0.10,0.00,22.88,27.13,29.87,4.75,26.49,1019.07,2036.99,3449.07,3294.13,3571.69,349.52,348.41,8.50,0000 0000 0000 0000 000000
2015-05-21 10:24:48,0.01,0.10,0.00,23.06,27.13,29.84,4.77,26.43,1019.07,2036.99,3448.99,3294.01,3571.09,349.82,348.26,8.53,0000 0000 0000 0000 000000
2015-05-21 10:29:49,0.01,0.10,0.00,22.96,27.13,29.88,4.83,26.44,1019.07,2036.99,3448.82,3294.00,3571.01,350.18,348.56,8.56,0000 0000 0000 0000 000000
2015-05-21 10:34:51,0.01,0.10,0.00,22.75,27.12,29.93,4.83,26.41,1019.06,2036.99,3448.10,3294.00,3571.00,350.38,349.18,8.59,0000 0000 0000 0000 000000
2015-05-21 10:39:52,0.00,0.10,0.00,22.67,27.12,29.89,4.80,26.44,1019.06,2036.99,3448.00,3293.96,3570.95,349.84,348.74,8.62,0000 0000 0000 0000 000000
2015-05-21 10:44:53,0.04,0.10,0.00,22.77,27.12,29.80,4.72,26.39,1019.06,2036.99,3447.93,3293.64,3570.48,349.65,348.53,8.65,0000 0000 0000 0000 000000
2015-05-21 10:49:55,0.03,0.10,0.00,22.92,27.10,29.76,4.81,26.48,1019.06,2036.99,3447.53,3293.34,3570.13,349.97,348.63,8.68,0000 0000 0000 0000 000000
2015-05-21 10:54:56,0.01,0.10,0.00,23.04,27.10,29.75,4.78,26.48,1019.05,2036.99,3447.03,3293.03,3570.00,349.77,348.31,8.71,0000 0000 0000 0000 000000
2015-05-21 10:59:56,0.01,0.10,0.00,22.84,27.10,29.84,4.78,26.53,1019.04,2036.99,3446.80,3292.99,3569.97,350.64,349.08,8.74,0000 0000 0000 0000 000000
2015-05-21 11:04:58,0.03,0.11,0.00,22.75,27.10,29.87,4.77,26.39,1019.03,2036.99,3446.18,3292.98,3569.66,349.71,348.52,8.77,0000 0000 0000 0000 000000
2015-05-21 11:09:59,0.03,0.11,0.00,22.77,27.10,29.80,4.77,26.48,1019.01,2036.99,3445.98,3292.67,3569.06,349.80,348.41,8.80,0000 0000 0000 0000 000000
2015-05-21 11:15:00,0.02,0.11,0.00,22.90,27.10,29.80,4.77,26.46,1019.04,2036.99,3445.88,3292.19,3569.00,349.52,348.38,8.82,0000 0000 0000 0000 000000
2015-05-21 11:20:01,0.02,0.11,0.00,23.06,27.10,29.75,4.79,26.53,1019.04,2036.99,3445.12,3292.01,3568.97,350.02,348.66,8.85,0000 0000 0000 0000 000000
2015-05-21 11:25:03,0.01,0.11,0.00,22.90,27.10,29.86,4.81,26.52,1019.06,2036.99,3444.97,3291.99,3568.48,349.53,348.21,8.88,0000 0000 0000 0000 000000
2015-05-21 11:30:04,0.05,0.11,0.00,22.74,27.10,29.93,4.82,26.45,1019.06,2036.99,3444.25,3291.67,3568.02,349.80,348.74,8.91,0000 0000 0000 0000 000000
2015-05-21 11:35:05,0.04,0.11,0.00,22.74,27.10,29.92,4.79,26.39,1019.06,2037.00,3443.64,3291.03,3567.84,350.18,348.56,8.94,0000 0000 0000 0000 000000
2015-05-21 11:40:07,0.02,0.11,0.00,22.81,27.09,29.83,4.76,26.48,1019.06,2037.01,3443.04,3290.99,3567.21,349.58,348.43,8.97,0000 0000 0000 0000 000000
2015-05-21 11:45:08,0.01,0.11,0.00,22.96,27.10,29.82,4.80,26.55,1019.06,2037.01,3442.99,3290.94,3567.01,349.78,348.35,9.00,0000 0000 0000 0000 000000
2015-05-21 11:50:09,0.06,0.11,0.00,23.04,27.10,29.83,4.81,26.50,1019.06,2037.00,3442.43,3290.26,3566.92,350.15,348.55,9.03,0000 0000 0000 0000 000000
2015-05-21 11:55:11,0.03,0.12,0.00,22.83,27.10,29.89,4.77,26.57,1019.06,2037.00,3441.97,3290.01,3566.26,349.20,348.15,9.06,0000 0000 0000 0000 000000
2015-05-21 12:00:12,0.02,0.12,0.00,22.67,27.10,29.96,4.89,26.57,1019.06,2037.01,3441.28,3289.99,3566.00,350.22,349.25,9.09,0000 0000 0000 0000 000000
2015-05-21 12:05:13,0.00,0.12,0.00,22.65,27.10,29.89,4.82,26.38,1019.06,2037.01,3441.01,3289.96,3565.99,350.22,349.04,9.12,0000 0000 0000 0000 000000
2015-05-21 12:10:15,0.02,0.12,0.00,22.79,27.10,29.81,4.78,26.53,1019.06,2037.02,3440.98,3289.65,3565.84,349.47,348.30,9.15,0000 0000 0000 0000 000000
2015-05-21 12:15:16,0.05,0.12,0.00,22.91,27.10,29.78,4.82,26.51,1019.06,2037.01,3440.48,3289.07,3565.12,350.21,348.70,9.18,0000 0000 0000 0000 000000
2015-05-21 12:20:18,0.00,0.12,0.00,22.92,27.10,29.84,4.80,26.48,1019.06,2037.00,3440.01,3289.00,3565.00,350.27,348.99,9.21,0000 0000 0000 0000 000000
2015-05-21 12:25:19,0.00,0.12,0.00,22.71,27.10,29.90,4.85,26.59,1019.06,2037.00,3439.92,3289.00,3564.98,350.21,348.90,9.23,0000 0000 0000 0000 000000
2015-05-21 12:30:21,0.03,0.12,0.00,22.68,27.10,29.92,4.84,26.43,1019.06,2037.01,3439.23,3288.93,3564.69,349.80,348.46,9.26,0000 0000 0000 0000 000000
2015-05-21 12:35:22,0.03,0.12,0.00,22.74,27.09,29.82,4.76,26.45,1019.06,2037.00,3439.00,3288.56,3564.15,349.69,348.82,9.29,0000 0000 0000 0000 000000
2015-05-21 12:40:23,0.02,0.12,0.00,22.89,27.08,29.79,4.78,26.48,1019.06,2037.01,3438.95,3288.06,3564.00,350.00,348.65,9.32,0000 0000 0000 0000 000000
2015-05-21 12:45:25,0.02,0.12,0.00,23.02,27.10,29.81,4.76,26.52,1019.06,2037.02,3438.32,3288.00,3563.97,349.36,347.78,9.35,0000 0000 0000 0000 000000
2015-05-21 12:50:26,0.01,0.12,0.00,22.81,27.10,29.89,4.74,26.47,1019.06,2037.01,3438.00,3287.98,3563.46,349.61,348.25,9.38,0000 0000 0000 0000 000000
2015-05-21 12:55:27,0.05,0.12,0.00,22.67,27.10,29.94,4.74,26.49,1019.06,2037.00,3437.32,3287.59,3563.02,349.76,348.55,9.41,0000 0000 0000 0000 000000
2015-05-21 13:00:29,0.01,0.13,0.00,22.69,27.09,29.89,4.77,26.68,1019.06,2037.00,3436.99,3287.02,3562.97,349.77,348.48,9.44,0000 0000 0000 0000 000000
2015-05-21 13:05:30,0.02,0.13,0.00,22.77,27.09,29.91,4.70,26.55,1019.06,2037.00,3436.77,3287.00,3562.70,348.90,347.74,9.47,0000 0000 0000 0000 000000